Overview Statistics Trail Chart Weather Telemetry Raw packets
 

This is the latest recevied weather packets stored in our database for station/object N5CSU. If no packets are shown the sender has not sent any weather packets the latest 10 day(s).

<< 61 62 63 64 65 66 67 >>
Time Temp. Humidity Pressure Rain* Wind** Luminosity Snow
1788195578 36.67° C 41% 1017.8 hPa 0 mm - 279 W/m² -
1788195268 36.11° C 42% 1017.6 hPa 0 mm - 224 W/m² -
1788194964 36.11° C 42% 1017.8 hPa 0 mm - 409 W/m² -
1788194660 35.56° C 44% 1017.9 hPa 0 mm - 373 W/m² -
1788194355 35.56° C 44% 1017.8 hPa 0 mm - 408 W/m² -
1788194051 35.56° C 44% 1017.7 hPa 0 mm - 416 W/m² -
1788193749 35.56° C 45% 1017.8 hPa 0 mm - 328 W/m² -
1788193445 35.56° C 45% 1017.8 hPa 0 mm - 179 W/m² -
1788193143 35° C 46% 1017.8 hPa 0 mm - 388 W/m² -
1788192840 34.44° C 47% 1017.8 hPa 0 mm - 432 W/m² -
1788192535 35° C 47% 1017.8 hPa 0 mm - 420 W/m² -
1788192230 34.44° C 47% 1018 hPa 0 mm - 410 W/m² -
1788191924 33.89° C 49% 1017.9 hPa 0 mm - 394 W/m² -
1788191618 33.33° C 50% 1017.9 hPa 0 mm - 386 W/m² -
1788191314 33.33° C 50% 1017.8 hPa 0 mm - 375 W/m² -
1788191011 32.78° C 51% 1017.9 hPa 0 mm - 23 W/m² -
1788190709 32.78° C 53% 1018 hPa 0 mm - 22 W/m² -
1788190405 32.22° C 54% 1018 hPa 0 mm - 22 W/m² -
1788190101 31.67° C 57% 1017.9 hPa 0 mm - 21 W/m² -
1788189797 31.67° C 57% 1017.8 hPa 0 mm - 21 W/m² -
1788189511 31.67° C 59% 1017.7 hPa 0 mm - 20 W/m² -
1788189190 31.11° C 59% 1017.8 hPa 0 mm - 19 W/m² -
1788188886 31.11° C 59% 1017.8 hPa 0 mm - 19 W/m² -
1788188581 30.56° C 61% 1017.7 hPa 0 mm - 18 W/m² -
1788188280 30.56° C 63% 1017.8 hPa 0 mm - 18 W/m² -

* Rain latest hour (hover to see other rain measurements)
** Current wind speed in m/s (hover to see current wind gust speed)